Location: Unspecified
(54.1780°N, 0.0000°E)
Time: 15:28:57
(UTC+00:00)

Transit 2A - Pass Details

Date: 22 June 2019
Orbit: 597 x 962 km, 66.7° (Epoch: 21 August)

Event Time Altitude Azimuth Distance (km) Brightness Sun altitude
Rises 09:06:50 0° 317° (NW) 3,500 9.0 45.3°
Reaches altitude 10° 09:09:31 10° 312° (NW) 2,504 8.4 45.6°
Maximum altitude 09:14:58 45° 241° (WSW) 1,085 7.1 46.3°
Drops below altitude 10° 09:19:53 10° 170° (S) 2,253 9.0 46.9°
Sets 09:22:12 0° 164° (SSE) 3,115 9.6 47.2°
